Time,TemperatureF,DewpointF,PressureIn,WindDirection,WindDirectionDegrees,WindSpeedMPH,WindSpeedGustMPH,Humidity,HourlyPrecipIn,Conditions,Clouds,dailyrainin,SoftwareType,DateUTC
2013-02-10 00:05:00,28.8,27.0,29.99,North,1,5.0,14.0,94,0.00,,,0.00,weatherlink.com 1.10,2013-02-10 06:05:00,
2013-02-10 00:20:00,28.8,27.0,29.98,WNW,285,2.0,8.0,94,0.00,,,0.00,weatherlink.com 1.10,2013-02-10 06:20:00,
2013-02-10 00:35:00,28.6,27.0,29.98,NNW,336,4.0,9.0,94,0.00,,,0.00,weatherlink.com 1.10,2013-02-10 06:35:00,
2013-02-10 00:50:00,28.6,27.0,29.98,NW,304,5.0,13.0,94,0.00,,,0.00,weatherlink.com 1.10,2013-02-10 06:50:00,
2013-02-10 01:05:00,28.4,27.0,29.98,NNW,336,9.0,15.0,94,0.00,,,0.00,weatherlink.com 1.10,2013-02-10 07:05:00,
2013-02-10 01:20:00,28.4,27.0,29.98,NNW,342,5.0,13.0,93,0.00,,,0.00,weatherlink.com 1.10,2013-02-10 07:20:00,
2013-02-10 01:35:00,28.3,27.0,29.97,WNW,288,4.0,9.0,93,0.00,,,0.00,weatherlink.com 1.10,2013-02-10 07:35:00,
2013-02-10 01:50:00,28.1,26.0,29.96,NW,304,5.0,12.0,92,0.00,,,0.00,weatherlink.com 1.10,2013-02-10 07:50:00,
2013-02-10 02:05:00,28.0,26.0,29.95,West,280,5.0,9.0,92,0.00,,,0.00,weatherlink.com 1.10,2013-02-10 08:05:00,
2013-02-10 02:20:00,28.0,26.0,29.95,WNW,288,4.0,9.0,92,0.00,,,0.00,weatherlink.com 1.10,2013-02-10 08:20:00,
2013-02-10 02:35:00,28.0,26.0,29.94,WNW,287,7.0,10.0,92,0.00,,,0.00,weatherlink.com 1.10,2013-02-10 08:35:00,
2013-02-10 02:50:00,28.0,26.0,29.93,WNW,285,6.0,10.0,92,0.00,,,0.00,weatherlink.com 1.10,2013-02-10 08:50:00,
2013-02-10 03:05:00,27.9,26.0,29.91,West,272,7.0,9.0,92,0.00,,,0.00,weatherlink.com 1.10,2013-02-10 09:05:00,
2013-02-10 03:20:00,27.9,26.0,29.90,WNW,283,7.0,10.0,92,0.00,,,0.00,weatherlink.com 1.10,2013-02-10 09:20:00,
2013-02-10 03:35:00,27.9,26.0,29.88,WNW,290,8.0,12.0,92,0.00,,,0.00,weatherlink.com 1.10,2013-02-10 09:35:00,
2013-02-10 03:51:00,27.8,26.0,29.88,West,278,5.0,14.0,92,0.00,,,0.00,weatherlink.com 1.10,2013-02-10 09:51:00,
2013-02-10 04:05:00,27.8,26.0,29.87,WNW,285,11.0,14.0,92,0.00,,,0.00,weatherlink.com 1.10,2013-02-10 10:05:00,
2013-02-10 04:21:00,27.7,26.0,29.87,West,276,7.0,13.0,92,0.00,,,0.00,weatherlink.com 1.10,2013-02-10 10:21:00,
2013-02-10 04:36:00,27.7,26.0,29.86,WNW,293,7.0,15.0,92,0.00,,,0.00,weatherlink.com 1.10,2013-02-10 10:36:00,
2013-02-10 04:51:00,27.5,26.0,29.84,WNW,294,5.0,14.0,93,0.00,,,0.00,weatherlink.com 1.10,2013-02-10 10:51:00,
2013-02-10 05:06:00,27.1,26.0,29.83,West,270,8.0,13.0,94,0.00,,,0.00,weatherlink.com 1.10,2013-02-10 11:06:00,
2013-02-10 05:21:00,27.0,26.0,29.82,WSW,249,6.0,12.0,95,0.00,,,0.00,weatherlink.com 1.10,2013-02-10 11:21:00,
2013-02-10 05:36:00,27.0,26.0,29.81,West,277,3.0,17.0,95,0.00,,,0.00,weatherlink.com 1.10,2013-02-10 11:36:00,
2013-02-10 05:51:00,26.9,26.0,29.79,West,269,10.0,18.0,95,0.00,,,0.00,weatherlink.com 1.10,2013-02-10 11:51:00,
2013-02-10 06:06:00,26.8,25.0,29.77,WSW,257,6.0,17.0,94,0.00,,,0.00,weatherlink.com 1.10,2013-02-10 12:06:00,
2013-02-10 06:21:00,26.9,25.0,29.78,WSW,256,8.0,15.0,93,0.00,,,0.00,weatherlink.com 1.10,2013-02-10 12:21:00,
2013-02-10 06:36:00,26.9,25.0,29.78,West,270,11.0,17.0,93,0.00,,,0.00,weatherlink.com 1.10,2013-02-10 12:36:00,
2013-02-10 06:51:00,26.9,25.0,29.77,WSW,243,7.0,15.0,93,0.00,,,0.00,weatherlink.com 1.10,2013-02-10 12:51:00,
2013-02-10 07:06:00,26.9,25.0,29.77,WNW,288,6.0,15.0,93,0.00,,,0.00,weatherlink.com 1.10,2013-02-10 13:06:00,
2013-02-10 07:21:00,26.9,25.0,29.76,West,262,14.0,15.0,93,0.00,,,0.00,weatherlink.com 1.10,2013-02-10 13:21:00,
2013-02-10 07:36:00,26.8,25.0,29.72,WSW,246,10.0,19.0,93,0.00,,,0.00,weatherlink.com 1.10,2013-02-10 13:36:00,
2013-02-10 07:51:00,26.9,25.0,29.70,WSW,252,7.0,19.0,93,0.00,,,0.00,weatherlink.com 1.10,2013-02-10 13:51:00,
2013-02-10 08:06:00,26.9,25.0,29.70,West,274,5.0,20.0,93,0.00,,,0.00,weatherlink.com 1.10,2013-02-10 14:06:00,
2013-02-10 08:21:00,27.0,25.0,29.72,WNW,294,8.0,15.0,93,0.00,,,0.00,weatherlink.com 1.10,2013-02-10 14:21:00,
2013-02-10 08:36:00,27.0,25.0,29.71,SW,222,9.0,17.0,93,0.00,,,0.00,weatherlink.com 1.10,2013-02-10 14:36:00,
2013-02-10 08:51:00,27.2,26.0,29.70,WSW,243,6.0,16.0,93,0.00,,,0.00,weatherlink.com 1.10,2013-02-10 14:51:00,
2013-02-10 09:06:00,27.3,26.0,29.67,WNW,288,7.0,16.0,93,0.00,,,0.00,weatherlink.com 1.10,2013-02-10 15:06:00,
2013-02-10 09:22:00,27.5,26.0,29.65,West,270,10.0,20.0,94,0.00,,,0.00,weatherlink.com 1.10,2013-02-10 15:22:00,
2013-02-10 09:36:00,27.8,26.0,29.64,West,269,10.0,17.0,94,0.00,,,0.00,weatherlink.com 1.10,2013-02-10 15:36:00,
2013-02-10 09:52:00,28.1,27.0,29.65,WSW,238,8.0,15.0,94,0.00,,,0.00,weatherlink.com 1.10,2013-02-10 15:52:00,
2013-02-10 10:06:00,27.8,27.0,29.62,WSW,248,13.0,16.0,95,0.00,,,0.00,weatherlink.com 1.10,2013-02-10 16:06:00,
2013-02-10 10:21:00,27.7,27.0,29.61,WSW,255,9.0,16.0,95,0.00,,,0.00,weatherlink.com 1.10,2013-02-10 16:21:00,
2013-02-10 10:36:00,27.7,27.0,29.61,West,279,11.0,14.0,95,0.00,,,0.00,weatherlink.com 1.10,2013-02-10 16:36:00,
2013-02-10 10:51:00,27.5,26.0,29.60,West,259,8.0,17.0,95,0.00,,,0.00,weatherlink.com 1.10,2013-02-10 16:51:00,
2013-02-10 11:06:00,27.3,26.0,29.57,WSW,242,9.0,19.0,96,0.00,,,0.00,weatherlink.com 1.10,2013-02-10 17:06:00,
2013-02-10 11:21:00,27.1,26.0,29.57,West,275,6.0,15.0,96,0.00,,,0.00,weatherlink.com 1.10,2013-02-10 17:21:00,
2013-02-10 11:36:00,27.3,26.0,29.55,WSW,249,10.0,16.0,96,0.00,,,0.00,weatherlink.com 1.10,2013-02-10 17:36:00,
2013-02-10 11:52:00,27.4,27.0,29.53,WSW,243,6.0,17.0,97,0.00,,,0.00,weatherlink.com 1.10,2013-02-10 17:52:00,
2013-02-10 12:06:00,27.5,27.0,29.52,SW,224,9.0,14.0,97,0.00,,,0.00,weatherlink.com 1.10,2013-02-10 18:06:00,
2013-02-10 12:22:00,27.6,27.0,29.51,SW,226,12.0,13.0,97,0.00,,,0.00,weatherlink.com 1.10,2013-02-10 18:22:00,
2013-02-10 12:37:00,27.7,27.0,29.50,West,263,6.0,13.0,97,0.00,,,0.00,weatherlink.com 1.10,2013-02-10 18:37:00,
2013-02-10 12:51:00,27.9,27.0,29.49,SW,231,9.0,13.0,97,0.00,,,0.00,weatherlink.com 1.10,2013-02-10 18:51:00,
2013-02-10 13:07:00,28.0,27.0,29.47,SW,224,6.0,14.0,97,0.00,,,0.00,weatherlink.com 1.10,2013-02-10 19:07:00,
2013-02-10 13:22:00,28.0,27.0,29.47,SW,232,11.0,12.0,97,0.00,,,0.00,weatherlink.com 1.10,2013-02-10 19:22:00,
2013-02-10 13:37:00,28.2,28.0,29.45,WSW,248,4.0,11.0,97,0.00,,,0.00,weatherlink.com 1.10,2013-02-10 19:37:00,
2013-02-10 13:52:00,28.2,28.0,29.43,SW,229,11.0,13.0,97,0.00,,,0.00,weatherlink.com 1.10,2013-02-10 19:52:00,
2013-02-10 14:07:00,28.5,28.0,29.43,SW,225,11.0,15.0,97,0.00,,,0.00,weatherlink.com 1.10,2013-02-10 20:07:00,
2013-02-10 14:22:00,28.8,28.0,29.43,SW,231,4.0,9.0,97,0.00,,,0.00,weatherlink.com 1.10,2013-02-10 20:22:00,
2013-02-10 14:37:00,29.3,29.0,29.42,SW,228,12.0,15.0,97,0.00,,,0.00,weatherlink.com 1.10,2013-02-10 20:37:00,
2013-02-10 14:52:00,29.6,29.0,29.41,SW,229,8.0,10.0,97,0.00,,,0.00,weatherlink.com 1.10,2013-02-10 20:52:00,
2013-02-10 15:07:00,29.8,29.0,29.40,WSW,242,6.0,10.0,97,0.00,,,0.00,weatherlink.com 1.10,2013-02-10 21:07:00,
2013-02-10 15:22:00,29.9,29.0,29.40,SW,222,9.0,11.0,97,0.00,,,0.00,weatherlink.com 1.10,2013-02-10 21:22:00,
2013-02-10 15:37:00,30.1,30.0,29.39,SW,229,9.0,11.0,98,0.00,,,0.00,weatherlink.com 1.10,2013-02-10 21:37:00,
2013-02-10 15:52:00,30.2,30.0,29.39,SSW,212,7.0,9.0,98,0.00,,,0.00,weatherlink.com 1.10,2013-02-10 21:52:00,
2013-02-10 16:07:00,30.3,30.0,29.39,SW,228,5.0,9.0,98,0.00,,,0.00,weatherlink.com 1.10,2013-02-10 22:07:00,
2013-02-10 16:22:00,30.5,30.0,29.38,SW,235,5.0,9.0,98,0.00,,,0.00,weatherlink.com 1.10,2013-02-10 22:22:00,
2013-02-10 16:37:00,30.7,30.0,29.38,WSW,237,6.0,11.0,98,0.00,,,0.00,weatherlink.com 1.10,2013-02-10 22:37:00,
2013-02-10 16:52:00,30.9,30.0,29.38,SSW,212,7.0,8.0,98,0.00,,,0.00,weatherlink.com 1.10,2013-02-10 22:52:00,
2013-02-10 17:07:00,31.0,31.0,29.38,SW,231,5.0,9.0,98,0.00,,,0.00,weatherlink.com 1.10,2013-02-10 23:07:00,
2013-02-10 17:23:00,31.2,31.0,29.38,SW,218,8.0,9.0,98,0.00,,,0.00,weatherlink.com 1.10,2013-02-10 23:23:00,
2013-02-10 17:37:00,31.0,31.0,29.38,SW,231,7.0,9.0,98,0.00,,,0.00,weatherlink.com 1.10,2013-02-10 23:37:00,
2013-02-10 17:53:00,31.0,31.0,29.38,SW,222,4.0,9.0,98,0.00,,,0.00,weatherlink.com 1.10,2013-02-10 23:53:00,
2013-02-10 18:07:00,30.9,30.0,29.38,SSW,208,4.0,10.0,98,0.00,,,0.00,weatherlink.com 1.10,2013-02-11 00:07:00,
2013-02-10 18:23:00,30.9,30.0,29.38,SSW,203,7.0,9.0,98,0.00,,,0.00,weatherlink.com 1.10,2013-02-11 00:23:00,
2013-02-10 18:38:00,30.8,30.0,29.37,South,174,4.0,10.0,98,0.00,,,0.00,weatherlink.com 1.10,2013-02-11 00:38:00,
2013-02-10 18:52:00,30.5,30.0,29.37,SSW,201,5.0,10.0,98,0.00,,,0.00,weatherlink.com 1.10,2013-02-11 00:52:00,
2013-02-10 19:07:00,30.2,30.0,29.37,South,188,7.0,10.0,98,0.00,,,0.00,weatherlink.com 1.10,2013-02-11 01:07:00,
2013-02-10 19:22:00,29.9,29.0,29.37,South,191,5.0,9.0,98,0.00,,,0.00,weatherlink.com 1.10,2013-02-11 01:22:00,
2013-02-10 19:38:00,29.5,29.0,29.37,SSW,195,8.0,10.0,98,0.00,,,0.00,weatherlink.com 1.10,2013-02-11 01:38:00,
2013-02-10 19:53:00,29.0,29.0,29.37,SSW,198,5.0,11.0,98,0.00,,,0.00,weatherlink.com 1.10,2013-02-11 01:53:00,
2013-02-10 20:08:00,28.7,28.0,29.37,South,177,6.0,11.0,98,0.00,,,0.00,weatherlink.com 1.10,2013-02-11 02:08:00,
2013-02-10 20:23:00,28.3,28.0,29.37,SSW,203,10.0,11.0,98,0.00,,,0.00,weatherlink.com 1.10,2013-02-11 02:23:00,
2013-02-10 20:38:00,27.9,27.0,29.37,South,169,6.0,11.0,98,0.00,,,0.00,weatherlink.com 1.10,2013-02-11 02:38:00,
2013-02-10 20:53:00,27.7,27.0,29.37,SSW,210,8.0,10.0,98,0.00,,,0.00,weatherlink.com 1.10,2013-02-11 02:53:00,
2013-02-10 21:08:00,27.7,27.0,29.38,SW,217,7.0,9.0,98,0.00,,,0.00,weatherlink.com 1.10,2013-02-11 03:08:00,
2013-02-10 21:23:00,27.7,27.0,29.38,SSE,158,5.0,9.0,98,0.00,,,0.00,weatherlink.com 1.10,2013-02-11 03:23:00,
2013-02-10 21:38:00,27.8,27.0,29.38,South,174,5.0,11.0,98,0.00,,,0.00,weatherlink.com 1.10,2013-02-11 03:38:00,
2013-02-10 21:53:00,27.9,27.0,29.39,South,174,8.0,9.0,98,0.00,,,0.00,weatherlink.com 1.10,2013-02-11 03:53:00,
2013-02-10 22:08:00,28.0,28.0,29.39,South,186,7.0,9.0,98,0.00,,,0.00,weatherlink.com 1.10,2013-02-11 04:08:00,
2013-02-10 22:23:00,28.2,28.0,29.40,SSE,153,4.0,9.0,98,0.00,,,0.00,weatherlink.com 1.10,2013-02-11 04:23:00,
2013-02-10 22:38:00,28.4,28.0,29.40,SSE,159,4.0,10.0,98,0.00,,,0.00,weatherlink.com 1.10,2013-02-11 04:38:00,
2013-02-10 22:53:00,28.5,28.0,29.40,SE,134,6.0,10.0,98,0.00,,,0.00,weatherlink.com 1.10,2013-02-11 04:53:00,
2013-02-10 23:08:00,28.5,28.0,29.41,South,191,4.0,10.0,98,0.00,,,0.00,weatherlink.com 1.10,2013-02-11 05:08:00,
2013-02-10 23:23:00,28.5,28.0,29.41,SSE,157,5.0,9.0,98,0.00,,,0.00,weatherlink.com 1.10,2013-02-11 05:23:00,
2013-02-10 23:38:00,28.3,28.0,29.42,SSE,162,8.0,11.0,97,0.00,,,0.00,weatherlink.com 1.10,2013-02-11 05:38:00,
2013-02-10 23:53:00,28.1,27.0,29.43,SSE,149,6.0,12.0,97,0.00,,,0.00,weatherlink.com 1.10,2013-02-11 05:53:00,